Miscellaneous Local Product
Issued by NWS Hastings, NE

Home | Current Version | Previous Version | Graphics & Text | Print | Product List | Glossary On
Versions: 1 2 3 4 5 6 7 8 9 10 11 12 13 14 15 16 17 18 19 20 21 22 23 24 25 26 27 28 29 30 31 32 33 34 35 36 37 38 39 40 41 42 43 44 45 46 47 48 49 50
408
AXUS43 KGID 310602
MISGRI

GID CWA HOURLY WEATHER ROUNDUP
NATIONAL WEATHER SERVICE HASTINGS NE
100 AM CDT TUE MAY 31 2016

NOTE: "FAIR" INDICATES FEW OR NO CLOUDS BELOW 12,000 FEET WITH NO
SIGNIFICANT WEATHER AND/OR OBSTRUCTIONS TO VISIBILITY.

...SOUTH CENTRAL NEBRASKA...

CITY           SKY/WX    TMP DP  RH WIND       PRES   REMARKS
GRAND ISLAND   LGT RAIN  62  58  86 E6        29.91F
HASTINGS       RAIN      61  58  90 SW5       29.93S FOG
KEARNEY        CLOUDY    61  54  77 NW9       29.88S
ORD            LGT RAIN  62  57  83 N13       29.85F
YORK           LGT RAIN  64  57  77 NW16G25   29.92R
AURORA         LGT RAIN  63  59  89 NW10      29.92F
LEXINGTON      CLOUDY    59  55  88 W3        29.90R
HOLDREGE       CLOUDY    60  54  80 W5        29.89F
HEBRON         CLOUDY    69  59  69 W13G20    29.95R

...NEBRASKA PANHANDLE...

CITY           SKY/WX    TMP DP  RH WIND       PRES   REMARKS
CHADRON        MOCLDY    51  47  86 CALM      30.08F
ALLIANCE       CLOUDY    52  47  83 N12       30.08R
SCOTTSBLUFF    CLOUDY    54  46  74 N6        30.10S
SIDNEY         MOCLDY    54  49  83 NE20G31   30.06R

...WESTERN AND NORTH CENTRAL NEBRASKA...

CITY           SKY/WX    TMP DP  RH WIND       PRES   REMARKS
VALENTINE      CLOUDY    55  52  89 W9        29.98S
AINSWORTH      CLOUDY    57  53  85 NW7       29.95F
ONEILL         CLOUDY    62  59  90 W16G25    29.87F
BROKEN BOW     CLOUDY    61  55  81 NW16      29.90R
IMPERIAL       CLOUDY    57  53  86 N9        29.99R
NORTH PLATTE   PTCLDY    58  51  78 N7        29.95F
MCCOOK         CLOUDY    56  53  90 W6        29.93S

...EASTERN NEBRASKA...

CITY           SKY/WX    TMP DP  RH WIND       PRES   REMARKS
NORFOLK        TSTM      59  56  89 VRB3      29.90S FOG
SO SIOUX CITY  CLOUDY    71  61  70 S16G24    29.83S
TEKAMAH        CLOUDY    67  60  78 S15       29.86F
COLUMBUS       CLOUDY    72  54  53 W22G38    29.89R
ALBION         RAIN      58  55  88 CALM      29.92R
OMAHA EPPLEY   CLOUDY    69  62  78 S14       29.88F
MILLARD        CLOUDY    68  62  82 SE8       29.89F
LINCOLN        CLOUDY    71  61  70 S12       29.88F
NEBRASKA CITY  CLOUDY    66  65  94 S10       29.92F
BEATRICE       CLOUDY    69  61  76 S13       29.91F
FALLS CITY     LGT RAIN  68  61  78 S8        29.92F

...NORTHERN KANSAS...

CITY           SKY/WX    TMP DP  RH WIND       PRES   REMARKS
GOODLAND       CLOUDY    51  50  96 NW6       29.94F
HILL CITY      CLOUDY    60  57  89 E3        29.87F
NORTON         CLEAR     59  52  77 CALM      29.93R
PHILLIPSBURG   PTCLDY    61  61 100 NE10      29.88F
SMITH CENTER   MOCLDY    59  57  94 E9        29.91F
BELOIT         CLOUDY    54  52  94 CALM      29.96F
HAYS           CLOUDY    59  50  72 NE10      29.97F
RUSSELL        LGT RAIN  59  57  93 NE9       29.96F
CONCORDIA      CLOUDY    66  56  70 NW28G38   29.98R
SALINA         CLOUDY    67  62  84 S12       29.94R
TOPEKA         CLEAR     66  61  84 S7        29.95F



USA.gov is the U.S. government's official web portal to all federal, state and local government web resources and services.